Weather History for Louisville Bowman, KY

Change the Weather History Date:

Monday, October 1, 2012

  Actual Average Record
Temperature  
Mean Temperature 61 °F 63 °F  
Max Temperature 65 °F 74 °F 90 °F (1952)
Min Temperature 57 °F 52 °F 38 °F (1974)
Degree Days  
Heating Degree Days 4 4  
Month to date heating degree days 4 4  
Since 1 July heating degree days 42 40  
Cooling Degree Days 0 2  
Month to date cooling degree days 0 2  
Year to date cooling degree days 1833 1415  
Growing Degree Days 10 (Base 50)    
Moisture  
Dew Point 55 °F    
Average Humidity 76    
Maximum Humidity 100    
Minimum Humidity 52    
Precipitation  
Precipitation 1.06 in 0.09 in 2.51 in (1977)
Month to date precipitation 1.06 0.09  
Year to date precipitation 36.14 34.79  
Sea Level Pressure  
Sea Level Pressure 29.70 in    
Wind  
Wind Speed 7 mph (NE)    
Max Wind Speed 16 mph    
Max Gust Speed 24 mph    
Visibility 7 miles    
Events Rain    
T = Trace of Precipitation, MM = Missing Value Source: NWS Daily Summary

Daily Weather History Graph

Daily Weather History Graph

Search for Another Location

Airport:

Trip Planner

Search our weather history database for the weather conditions in past years. The results will help you decide how hot, cold, wet, or windy it might be!

Date:

Astronomy

Oct. 01, 2012 Rise Set
Actual Time 7:38 AM EDT 7:24 PM EDT
Civil Twilight 7:12 AM EDT 7:51 PM EDT
Nautical Twilight 6:41 AM EDT 8:21 PM EDT
Astronomical Twilight 6:11 AM EDT 8:52 PM EDT
Moon 8:03 PM EDT (10/1) 9:05 AM EDT (10/1)
Length of Visible Light 12h 38m
Length of Day
11h 45m
Full, 98% of the Moon is Illuminated
Oct 1
Full
Oct 8
Last Quarter
Oct 15
New
Oct 21
First Quarter
Oct 29
Full

Hourly Weather History & Observations

Time (EDT) Temp. Dew Point Humidity Pressure Visibility Wind Dir Wind Speed Gust Speed Precip Events Conditions
12:53 AM 63.0 °F 46.9 °F 56% 29.85 in 10.0 mi NE 5.8 mph - N/A   Clear
1:53 AM 62.6 °F 44.6 °F 52% 29.84 in 10.0 mi ENE 5.8 mph - N/A   Clear
2:53 AM 61.0 °F 45.0 °F 56% 29.81 in 10.0 mi ENE 9.2 mph - N/A   Clear
3:53 AM 60.1 °F 45.0 °F 57% 29.79 in 10.0 mi ENE 6.9 mph - N/A   Clear
4:53 AM 59.0 °F 46.0 °F 62% 29.79 in 10.0 mi ENE 5.8 mph - N/A   Clear
5:53 AM 57.9 °F 46.0 °F 65% 29.79 in 10.0 mi ENE 6.9 mph - N/A   Clear
6:53 AM 57.9 °F 46.9 °F 67% 29.80 in 10.0 mi Variable 3.5 mph - N/A   Clear
7:53 AM 57.2 °F 48.2 °F 72% 29.79 in 10.0 mi NE 4.6 mph - N/A   Clear
8:53 AM 57.9 °F 48.9 °F 72% 29.81 in 10.0 mi Calm Calm - 0.00 in Rain Light Rain
9:53 AM 57.9 °F 52.0 °F 81% 29.80 in 10.0 mi ENE 5.8 mph - 0.01 in Rain Light Rain
10:53 AM 57.9 °F 54.0 °F 87% 29.78 in 10.0 mi ENE 5.8 mph - 0.02 in Rain Light Rain
11:53 AM 62.1 °F 55.0 °F 78% 29.76 in 10.0 mi East 9.2 mph - 0.00 in   Scattered Clouds
12:53 PM 64.9 °F 55.9 °F 73% 29.73 in 10.0 mi ENE 9.2 mph - N/A   Overcast
1:53 PM 63.0 °F 57.0 °F 81% 29.72 in 2.5 mi ENE 8.1 mph - 0.01 in Rain Rain
2:13 PM 62.6 °F 57.2 °F 82% 29.71 in 9.0 mi NNE 6.9 mph - 0.02 in Rain Light Rain
2:46 PM 60.8 °F 57.2 °F 88% 29.69 in 5.0 mi NNE 8.1 mph - 0.06 in Rain Light Rain
2:53 PM 61.0 °F 57.9 °F 90% 29.69 in 5.0 mi NE 8.1 mph - 0.06 in Rain Light Rain
3:41 PM 60.8 °F 57.2 °F 88% 29.67 in 3.0 mi NNE 9.2 mph - 0.12 in Rain Heavy Rain
3:53 PM 60.1 °F 57.9 °F 93% 29.66 in 2.5 mi NE 10.4 mph 16.1 mph 0.14 in Rain Light Rain
4:53 PM 59.0 °F 57.9 °F 96% 29.64 in 2.5 mi NE 9.2 mph 16.1 mph 0.17 in Rain Light Rain
5:19 PM 60.8 °F 57.2 °F 88% 29.65 in 2.5 mi NE 5.8 mph - 0.02 in Rain Light Rain
5:44 PM 59.0 °F 57.2 °F 94% 29.65 in 2.5 mi NNE 5.8 mph - 0.05 in Rain Light Rain
5:53 PM 59.0 °F 57.2 °F 94% 29.65 in 2.5 mi NNE 6.9 mph - N/A Rain Rain
6:53 PM 57.9 °F 57.9 °F 100% 29.64 in 2.5 mi North 10.4 mph - 0.28 in Rain Heavy Rain
7:00 PM 57.2 °F 57.2 °F 100% 29.65 in 0.8 mi Variable 5.8 mph - 0.05 in Rain Heavy Rain
7:05 PM 57.2 °F 57.2 °F 100% 29.65 in 2.0 mi North 6.9 mph - 0.07 in Rain Heavy Rain
7:14 PM 57.2 °F 57.2 °F 100% 29.65 in 4.0 mi NNE 5.8 mph - 0.10 in Rain Rain
7:21 PM 57.2 °F 57.2 °F 100% 29.65 in 4.0 mi NNE 9.2 mph - 0.11 in Rain Rain
7:26 PM 57.2 °F 57.2 °F 100% 29.65 in 1.5 mi NNE 5.8 mph - 0.21 in Rain Heavy Rain
7:45 PM 57.2 °F 57.2 °F 100% 29.64 in 3.0 mi NE 8.1 mph - 0.24 in Rain Light Rain
7:53 PM 57.9 °F 57.9 °F 100% 29.63 in 3.0 mi NE 10.4 mph - 0.24 in Rain Light Rain
8:36 PM 59.0 °F 57.2 °F 94% 29.62 in 10.0 mi NE 8.1 mph - 0.00 in   Overcast
8:49 PM 59.0 °F 57.2 °F 94% 29.63 in 10.0 mi NE 8.1 mph - 0.00 in Rain Light Rain
8:53 PM 59.0 °F 57.9 °F 96% 29.62 in 10.0 mi NNE 6.9 mph - 0.00 in Rain Light Rain
9:00 PM 59.0 °F 57.2 °F 94% 29.63 in 10.0 mi NNE 6.9 mph - 0.00 in Rain Light Rain
9:30 PM 60.8 °F 57.2 °F 88% 29.62 in 10.0 mi NE 9.2 mph - 0.00 in Rain Light Rain
9:53 PM 60.1 °F 57.9 °F 93% 29.62 in 10.0 mi NE 9.2 mph - 0.00 in   Overcast
10:05 PM 60.8 °F 57.2 °F 88% 29.63 in 8.0 mi NE 5.8 mph - 0.02 in Rain Rain
10:53 PM 60.1 °F 59.0 °F 96% 29.62 in 10.0 mi NNE 6.9 mph - 0.06 in Rain Light Rain
11:53 PM 60.8 °F 59.0 °F 94% 29.62 in 10.0 mi ENE 3.5 mph - N/A   Overcast